Regional Weather Roundup
Issued by NWS

Home | Current Version | Previous Version | Graphics & Text | Print | Product List | Glossary On
Versions: 1 2 3 4 5 6 7 8 9 10 11 12 13 14 15 16 17 18 19 20 21 22 23 24 25 26 27 28 29 30 31 32 33 34 35 36 37 38 39 40 41 42 43 44 45 46 47 48 49 50
000
ASUS43 KTOP 162359
RWRKS

WEATHER ROUNDUP FOR KANSAS
NATIONAL WEATHER SERVICE GOODLAND KS
700 PM CDT WED AUG 16 2017

NOTE:  "FAIR" INDICATES FEW OR NO CLOUDS BELOW 12,000 FEET WITH NO
SIGNIFICANT WEATHER AND/OR OBSTRUCTIONS TO VISIBILITY.

KSZ001>006-013>018-027>032-041>047-170100-
NORTHWEST KANSAS

CITY           SKY/WX    TMP DP  RH WIND       PRES   REMARKS
GOODLAND       SUNNY     76  54  46 N14       30.02R
6HR MIN TEMP:  74; 6HR MAX TEMP:  80;

HAYS           MOSUNNY   83  61  47 NW16      29.89S
HILL CITY      SUNNY     79  62  56 N18       29.92R
6HR MIN TEMP:  76; 6HR MAX TEMP:  84;

RUSSELL        MOSUNNY   82  60  47 NW13      29.86F
6HR MIN TEMP:  74; 6HR MAX TEMP:  85;

$$

KSZ061>065-074>080-084>089-170100-
SOUTHWEST KANSAS

CITY           SKY/WX    TMP DP  RH WIND       PRES   REMARKS
DODGE CITY     SUNNY     86  56  35 NW13G22   29.92F
6HR MIN TEMP:  82; 6HR MAX TEMP:  88;

ELKHART          N/A     82  55  39 N6          N/A
GARDEN CITY    SUNNY     84  53  34 NW12      29.95S
6HR MIN TEMP:  78; 6HR MAX TEMP:  85;

GREAT BEND     SUNNY     83  62  49 N12       29.87F
LIBERAL        SUNNY     84  57  39 NW10      29.97S
$$

KSZ066>073-081>083-090>101-170100-
SOUTHEAST KANSAS

CITY           SKY/WX    TMP DP  RH WIND       PRES   REMARKS
CHANUTE        TSTM      71  68  90 NW10      29.85R VSB 3/4
6HR MIN TEMP:  70; 6HR MAX TEMP:  88; 6HR PCP:  1.30;

COFFEYVILLE    MOSUNNY   84  76  76 S8G17     29.79S
6HR MIN TEMP:  74; 6HR MAX TEMP:  89; 6HR PCP:  0.01;

HUTCHINSON     CLOUDY    83  64  52 NW13      29.82F
6HR MIN TEMP:  78; 6HR MAX TEMP:  85;

MEDICINE LODGE   N/A     85  64  49 N12       29.82F
NEWTON         CLOUDY    80  67  64 N13       29.82F
PARSONS        LGT RAIN  72  68  87 N9        29.85R
6HR MIN TEMP:  72; 6HR MAX TEMP:  88; 6HR PCP:  0.07;

WICHITA INTL   CLOUDY    81  71  71 N9        29.81F
6HR MIN TEMP:  72; 6HR MAX TEMP:  90; 6HR PCP:  0.03;

WICHITA JABRA  CLOUDY    78  73  84 SE3       29.82F
6HR MIN TEMP:  66; 6HR MAX TEMP:  87; 6HR PCP:  1.35;

WICHITA MCCONL CLOUDY    79  70  73 NE6       29.84R
WINFIELD         N/A     72  72 100 VRB3      29.81S THUNDER
6HR MIN TEMP:  71; 6HR MAX TEMP:  89; 6HR PCP:  1.25;

$$

KSZ007>012-019>026-033>040-048>060-102>105-170100-
NORTHEAST KANSAS

CITY           SKY/WX    TMP DP  RH WIND       PRES   REMARKS
CONCORDIA      SUNNY     81  64  56 NW10      29.84R
6HR MIN TEMP:  76; 6HR MAX TEMP:  83;

EMPORIA        CLOUDY    78  68  71 NW8       29.82R
6HR MIN TEMP:  77; 6HR MAX TEMP:  87; 6HR PCP: TRACE;

LAWRENCE       CLOUDY    79  72  79 CALM      29.81S
6HR MIN TEMP:  78; 6HR MAX TEMP:  85;

MANHATTAN      SUNNY     82  68  62 W5        29.81R
6HR MIN TEMP:  80; 6HR MAX TEMP:  83;

OLATHE IND     CLOUDY    74  72  93 S7        29.84R
6HR MIN TEMP:  73; 6HR MAX TEMP:  87; 6HR PCP:  0.72;

OLATHE EXE     LGT RAIN  72  72 100 SW3       29.83R
6HR MIN TEMP:  72; 6HR MAX TEMP:  85; 6HR PCP:  0.67;

SALINA         SUNNY     86  62  44 NW14      29.83F
6HR MIN TEMP:  79; 6HR MAX TEMP:  87;

TOPEKA BILLARD CLOUDY    82  71  69 VRB5      29.80S
6HR MIN TEMP:  79; 6HR MAX TEMP:  85;

TOPEKA FORBES  CLOUDY    81  70  69 NW8       29.81F
6HR MIN TEMP:  79; 6HR MAX TEMP:  86;

$$




USA.gov is the U.S. government's official web portal to all federal, state and local government web resources and services.